Dewpoint
68 68 69 70 68 67 66 67 67 67 68 68 68 67 67 67 67 67 67 67 66 66 66 66 66 65 65 63 62 61 58 55
67 68 68 67 68 68 67 66 66 67 67 67 66 66 66 65 66 66 66 66 66 66 65 65 66 65 65 64 63 62 58 56
69 68 67 67 67 68 68 67 67 67 67 67 65 63 63 63 63 65 66 66 66 65 65 65 65 64 64 64 63 57 57 55
67 67 67 67 65 67 67 67 66 66 65 66 64 65 63 62 63 65 65 66 66 65 65 64 63 59 61 62 59 59 59 57
66 66 67 67 65 66 66 66 68 67 66 66 66 66 65 63 61 61 62 64 61 62 62 61 60 62 60 61 61 61 59 59
65 66 66 66 66 66 66 66 67 67 65 66 65 65 64 62 61 61 62 60 60 60 60 62 63 63 63 63 63 62 61 60
65 65 65 66 66 65 66 65 66 65 65 65 65 64 64 63 62 62 62 62 61 62 62 62 62 63 63 63 63 63 63 63
65 65 66 65 65 65 66 66 64 64 63 64 66 65 65 65 64 64 64 64 64 64 64 64 64 64 64 64 63 63 63 63
65 66 66 66 65 65 64 63 62 63 65 68 68 67 67 66 66 65 65 65 65 65 64 64 63 63 62 62 62 62 61 61
65 64 65 65 64 64 63 64 67 67 67 67 67 67 67 66 64 64 63 62 61 59 58 55 56 54 52 53 53 54 53 55
64 65 65 65 65 66 67 67 66 66 65 64 63 62 61 58 56 55 53 51 51 50 49 50 46 45 44 42 42 44 41 39
65 65 65 65 67 67 66 64 59 58 59 59 57 55 53 50 50 51 49 48 49 49 51 49 49 48 46 42 44 43 43 45
66 65 65 66 65 64 60 54 53 52 51 50 48 48 48 47 44 46 48 48 51 52 49 46 46 47 44 39 36 36 43 46
66 66 66 65 64 62 60 56 51 48 47 48 48 48 49 47 47 47 48 46 48 47 45 40 36 38 36 31 29 29 32 38
65 65 65 64 64 59 54 51 46 42 43 43 46 47 48 46 45 44 43 40 39 39 37 34 31 30 35 32 29 25 30 31
65 66 65 62 59 54 49 45 41 38 40 42 44 46 45 44 42 41 40 36 35 33 31 33 33 27 29 29 32 34 30 29
63 64 59 54 52 51 46 42 40 39 40 44 44 45 43 41 39 39 37 33 33 33 33 32 31 31 29 29 31 31 29 27
54 54 50 49 48 46 42 39 37 36 39 41 40 39 39 39 37 37 36 37 37 38 39 37 37 36 34 33 32 31 30 29
49 46 44 43 44 41 40 39 36 37 39 35 34 35 36 39 38 40 38 41 42 42 41 40 39 38 38 35 34 33 33 32
45 40 39 40 39 37 36 36 36 37 34 34 33 33 35 40 39 39 39 39 40 40 39 37 38 39 39 39 37 35 35 34
Wind_Speed
21 20 19 18 18 18 19 18 18 16 15 13 11 10 10 9 8 6 5 4 5 6 6 7 5 4 4 2 2 5 10 4
18 19 19 19 17 16 17 17 16 15 13 11 10 8 7 6 6 6 4 3 2 2 3 3 4 4 5 5 5 8 11 6
15 17 18 17 16 15 12 11 11 10 10 8 9 7 7 8 7 6 5 4 3 3 3 3 4 9 8 6 7 9 7 7
15 16 17 16 15 14 14 12 12 11 11 11 7 3 4 2 3 5 5 5 5 5 6 6 10 5 9 10 9 6 8 8
14 13 12 14 11 11 9 8 5 9 9 9 5 5 5 7 4 7 6 9 8 9 8 9 3 5 4 4 5 7 7 8
16 16 14 13 11 12 11 10 10 8 8 8 6 6 6 4 3 2 3 3 1 4 4 4 6 7 7 8 9 10 9 10
18 17 16 14 12 11 11 9 10 10 9 9 7 5 4 4 2 3 2 1 3 4 5 5 7 6 8 10 12 14 14 12
19 19 17 15 12 11 10 11 11 9 8 7 6 4 4 5 3 1 2 4 4 5 6 7 7 8 8 10 11 12 14 16
21 21 19 17 15 14 12 11 9 9 7 7 6 6 4 3 2 3 3 1 1 1 3 2 4 5 7 8 10 11 13 13
20 18 19 18 15 14 12 11 9 9 8 7 6 6 7 6 7 6 3 3 2 0 1 3 5 7 7 9 10 12 14 15
21 20 21 19 16 13 12 12 11 10 9 9 10 9 8 7 7 6 2 2 1 2 3 5 7 9 11 13 13 14 16 16
21 21 21 20 15 14 12 13 12 12 12 11 10 10 9 7 6 4 0 0 1 4 6 7 8 10 14 14 13 15 15 12
23 23 22 19 17 17 15 15 14 13 11 11 10 9 7 5 4 3 2 4 5 5 6 7 10 10 14 14 17 13 7 7
24 24 25 22 19 16 16 15 12 13 11 10 9 8 7 6 4 4 4 3 4 6 8 8 8 10 12 16 11 14 10 13
24 26 25 22 22 16 16 13 13 12 11 10 8 8 7 6 5 5 4 4 5 5 6 8 10 9 8 9 10 14 19 18
22 22 25 19 23 23 24 19 18 13 12 10 9 8 7 6 5 4 4 4 4 4 6 7 7 10 10 10 11 15 19 19
20 22 23 24 19 22 22 18 15 14 13 13 10 9 7 6 4 4 3 2 3 4 6 7 9 10 12 12 12 12 14 18
22 24 21 21 22 20 18 21 19 16 14 13 11 8 7 5 3 1 1 2 4 6 7 9 9 11 13 13 14 16 17 19
22 23 23 19 19 18 20 19 16 15 15 11 10 7 6 4 1 1 3 4 6 7 8 10 12 13 14 15 15 17 18 19
26 25 23 21 20 21 19 18 14 13 11 10 8 6 4 2 1 2 4 5 6 7 9 10 11 12 15 16 16 17 17 18
Wind_Direction
158 166 162 161 161 161 163 159 158 157 158 156 151 146 148 152 154 150 144 139 138 136 141 147 156 168 182 190 285 303 293 304
165 166 170 170 167 168 168 164 164 159 158 148 145 145 149 149 162 160 160 162 162 157 154 160 173 199 212 211 229 251 264 289
170 175 173 176 174 169 168 163 155 150 149 143 164 185 173 170 104 144 179 188 199 212 224 228 239 222 213 236 252 268 296 279
175 181 178 176 177 167 180 169 179 184 184 175 203 168 178 230 139 179 201 211 223 228 242 251 242 259 181 196 248 315 286 289
178 176 162 176 167 173 168 171 174 187 189 188 162 181 206 208 190 189 199 186 225 202 205 232 287 294 297 293 303 276 286 288
178 177 174 177 171 177 180 180 182 199 186 184 186 201 202 213 208 174 204 201 273 239 253 271 273 273 280 293 293 289 289 293
180 180 180 175 183 176 184 186 182 190 187 186 200 198 184 198 181 245 294 280 246 259 269 281 295 296 303 296 292 295 287 280
172 181 180 180 177 176 178 188 183 186 180 180 201 214 202 205 196 230 265 274 307 310 317 309 309 316 304 295 293 293 289 289
175 179 177 181 184 182 186 180 181 175 169 184 185 205 172 184 142 78 48 66 63 349 308 337 280 271 270 266 279 272 277 278
178 174 176 180 177 176 178 167 164 143 150 126 118 135 131 128 122 120 121 114 133 255 312 293 290 293 291 289 279 283 288 284
178 172 173 173 170 165 151 139 134 130 126 118 110 109 113 103 93 93 95 82 51 338 309 311 304 305 311 306 303 304 301 297
176 171 168 168 145 140 131 130 127 125 125 124 128 111 108 111 109 107 199 272 341 345 330 338 326 330 322 312 312 304 308 316
175 173 169 160 144 149 142 138 141 133 126 126 120 113 108 104 101 99 32 24 16 9 348 340 331 342 319 322 304 282 295 327
179 178 168 169 160 160 156 154 148 135 129 120 117 118 108 106 102 84 49 57 35 14 2 344 339 354 337 321 327 307 321 326
183 178 171 175 158 148 145 137 142 137 137 134 126 128 125 117 103 77 63 26 33 19 14 6 340 332 342 317 322 318 321 306
182 176 169 167 159 159 163 163 161 154 151 142 144 138 126 114 102 87 66 50 39 15 358 335 324 322 324 325 317 313 313 311
173 171 165 165 161 164 164 165 151 153 153 152 149 146 144 137 129 110 83 15 12 335 317 313 316 320 319 316 312 304 302 304
165 165 157 157 156 158 163 161 158 157 158 159 158 157 154 138 131 126 30 349 331 307 303 298 302 299 299 300 303 307 305 307
158 153 151 150 153 156 160 158 157 157 159 158 153 153 161 145 150 301 313 319 299 295 296 291 287 291 294 294 293 291 295 296
159 152 150 151 152 156 152 150 152 148 150 148 153 157 158 139 268 317 313 299 296 297 285 289 296 290 291 293 294 292 288 288